• Join FlightAware (Why Join?)
  • Login
  • US Flag 
06:54AM EDT


 

Airport Tracker/Info


-or-


 

Live Flight TrackerFlight Track Log ✈ SWA2166 ✈ 11-Apr-2013 ✈ KMSY - KMDW

Flight Track Log - Related Links

Times and Time Zones

All times are in EDT time to prevent confusion due to time zone crossing. See the SWA2166 flight status page for this flight to view local times or setup timezone preferences in your user account.

Time Position Orientation Groundspeed Altitude Reporting Facility
EDT Latitude Longitude Course Direction KTS MPH feet Rate Location/Type
07:53AM 29.9781 -90.2539 196° South 137 158 1,000  Level Houston Center
07:54AM 29.9533 -90.2619 196° South 152 175 2,200 1,800 Climbing Houston Center
07:55AM 29.9381 -90.2675 197° South 174 200 3,000 3,060 Climbing Houston Center
07:55AM 29.9278 -90.3111 255° West 219 252 5,300 3,240 Climbing Houston Center
07:56AM 29.9233 -90.3314 256° West 214 246 6,300 2,520 Climbing Houston Center
07:57AM 29.9631 -90.3953 306° West 260 299 9,100 2,520 Climbing Houston Center
07:58AM 30.0400 -90.4494 329° Northwest 313 360 11,500 3,060 Climbing Houston Center
07:59AM 30.1636 -90.4836 347° North 381 438 15,400 3,360 Climbing Houston Center
08:00AM 30.2711 -90.5108 348° North 390 449 18,400 2,640 Climbing Houston Center
08:01AM 30.3831 -90.5428 346° North 409 471 20,800 2,400 Climbing Houston Center
08:02AM 30.5072 -90.5456 359° North 449 517 23,400 2,460 Climbing Houston Center
08:03AM 30.6308 -90.5342 North 445 512 25,900 2,160 Climbing Houston Center
08:04AM 30.7581 -90.5236 North 452 520 27,900 1,800 Climbing Houston Center
08:05AM 30.8864 -90.5128 North 456 525 29,600 1,500 Climbing Houston Center
08:06AM 31.0181 -90.5008 North 465 535 31,000 1,380 Climbing Houston Center
08:07AM 31.1531 -90.4886 North 477 549 32,500 1,560 Climbing Houston Center
08:08AM 31.2900 -90.4753 North 488 562 34,200 1,620 Climbing Houston Center
08:09AM 31.4231 -90.4650 North 482 555 35,800 1,440 Climbing Houston Center
08:10AM 31.5556 -90.4528 North 478 550 37,200 1,140 Climbing Houston Center
08:11AM 31.6869 -90.4403 North 475 547 38,200 840 Climbing Houston Center
08:12AM 31.8206 -90.4297 North 477 549 39,000 480 Climbing Houston Center
08:12AM 31.9036 -90.4211 North 474 545 39,000  Level Memphis Center
08:13AM 32.0372 -90.4114 North 474 545 39,000  Level Memphis Center
08:14AM 32.1708 -90.3967 North 479 551 39,000  Level Memphis Center
08:15AM 32.3025 -90.3867 North 474 545 39,000  Level Memphis Center
08:16AM 32.4339 -90.3722 North 474 545 39,000  Level Memphis Center
08:17AM 32.5614 -90.3622 North 469 540 39,000  Level Memphis Center
08:18AM 32.6950 -90.3497 North 469 540 39,000  Level Memphis Center
08:19AM 32.8264 -90.3400 North 469 540 39,000  Level Memphis Center
08:20AM 32.9600 -90.3275 North 469 540 39,000  Level Memphis Center
08:21AM 33.0936 -90.3150 North 475 547 39,000  Level Memphis Center
08:22AM 33.2272 -90.3000 North 480 552 39,000  Level Memphis Center
08:23AM 33.3628 -90.2900 North 480 552 39,000  Level Memphis Center
08:24AM 33.5006 -90.2750 North 480 552 39,000  Level Memphis Center
08:25AM 33.6364 -90.2500 North 480 552 39,000  Level Memphis Center
08:26AM 33.7697 -90.2197 11° North 480 552 39,000  Level Memphis Center
08:27AM 33.9033 -90.1969 North 480 552 39,000  Level Memphis Center
08:28AM 34.0389 -90.1717 North 490 564 39,000  Level Memphis Center
08:29AM 34.1747 -90.1464 North 490 564 39,000  Level Memphis Center
08:30AM 34.3186 -90.1183 North 485 558 39,000  Level Memphis Center
08:31AM 34.4542 -90.0953 North 485 558 39,000  Level Memphis Center
08:32AM 34.5875 -90.0694 North 485 558 39,000  Level Memphis Center
08:33AM 34.7231 -90.0439 North 485 558 39,000  Level Memphis Center
08:34AM 34.8586 -90.0206 North 485 558 39,000  Level Memphis Center
08:35AM 34.9839 -89.9972 North 485 558 39,000  Level Memphis Center
08:36AM 35.0986 -90.0450 341° North 455 524 39,000  Level Memphis Center
08:37AM 35.1969 -90.1336 324° Northwest 427 491 39,000  Level Memphis Center
08:38AM 35.2972 -90.2222 324° Northwest 439 505 39,000  Level Memphis Center
08:39AM 35.3953 -90.3111 324° Northwest 439 505 39,000  Level Memphis Center
08:40AM 35.5039 -90.4081 324° Northwest 444 511 39,000  Level Memphis Center
08:41AM 35.6247 -90.4592 341° North 444 511 39,000  Level Memphis Center
08:42AM 35.7417 -90.4108 19° North 430 495 39,000  Level Memphis Center
08:43AM 35.8792 -90.3467 21° North 484 557 39,000  Level Memphis Center
08:44AM 36.0189 -90.2878 19° North 498 573 39,000  Level Memphis Center
08:45AM 36.1564 -90.2233 21° North 510 587 39,000  Level Memphis Center
08:46AM 36.2939 -90.1614 20° North 522 601 39,000  Level Memphis Center
08:47AM 36.4314 -90.1017 19° North 522 601 39,000  Level Memphis Center
08:48AM 36.5689 -90.0339 22° Northeast 527 606 39,000  Level Memphis Center
08:49AM 36.7083 -89.9739 19° North 527 606 39,000 -300 Level Memphis Center
08:51AM 36.9083 -89.8747 22° Northeast 532 612 38,300 -420 Descending Kansas City Center
08:52AM 37.0486 -89.8100 20° North 533 613 38,000 -180 Descending Kansas City Center
08:53AM 37.2167 -89.7308 21° North 534 615 38,000  Level Kansas City Center
08:54AM 37.3556 -89.6653 21° North 532 612 38,000  Level Kansas City Center
08:55AM 37.4975 -89.6156 16° North 529 609 38,000  Level Kansas City Center
08:56AM 37.6431 -89.5828 10° North 527 606 38,000  Level Kansas City Center
08:57AM 37.7864 -89.5450 12° North 527 606 38,000  Level Kansas City Center
08:58AM 37.9422 -89.5047 12° North 528 608 38,000  Level Kansas City Center
08:59AM 38.0864 -89.4689 11° North 528 608 38,000  Level Kansas City Center
09:00AM 38.2417 -89.4278 12° North 530 610 38,000 -240 Level Kansas City Center
09:01AM 38.3853 -89.3911 11° North 528 608 37,600 -660 Descending Kansas City Center
09:02AM 38.5303 -89.3528 12° North 533 613 36,700 -960 Descending Kansas City Center
09:03AM 38.6875 -89.3108 12° North 538 619 35,700 -960 Descending Kansas City Center
09:04AM 38.8347 -89.2725 11° North 541 623 34,800 -1,560 Descending Kansas City Center
09:05AM 38.9803 -89.2339 12° North 538 619 32,500 -1,920 Descending Kansas City Center
09:06AM 39.1392 -89.1908 12° North 541 623 31,000 -780 Descending Kansas City Center
09:07AM 39.2681 -89.1567 12° North 545 627 31,000  Level Kansas City Center
09:08AM 39.4239 -89.1156 12° North 549 632 31,000 -360 Level Kansas City Center
09:09AM 39.5722 -89.0750 12° North 548 631 30,300 -840 Descending Kansas City Center
09:10AM 39.7208 -89.0358 11° North 546 628 29,300 -660 Descending Kansas City Center
09:11AM 39.8992 -88.9867 12° North 547 629 29,000 -360 Descending Kansas City Center
09:12AM 40.0481 -88.9458 12° North 548 631 28,600 -1,140 Descending Kansas City Center
09:14AM 40.1878 -88.9089 11° North 526 605 26,600 -2,340 Descending Chicago Center
09:15AM 40.3550 -88.8619 12° North 514 592 23,600 -2,460 Descending Chicago Center
09:16AM 40.4761 -88.8286 12° North 494 568 21,600 -1,920 Descending Chicago Center
09:17AM 40.5967 -88.7950 12° North 449 517 19,700 -2,100 Descending Chicago Center
09:18AM 40.7150 -88.7633 11° North 435 501 17,400 -1,380 Descending Chicago Center
09:19AM 40.8447 -88.7125 17° North 410 472 16,900 -360 Descending Chicago Center
09:20AM 40.9447 -88.6539 24° Northeast 395 455 16,700 -840 Descending Chicago Center
09:21AM 41.0453 -88.5992 22° Northeast 391 450 15,300 -2,280 Descending Chicago Center
09:22AM 41.1428 -88.5439 23° Northeast 382 440 12,100 -2,760 Descending Chicago Center
09:23AM 41.2439 -88.4867 23° Northeast 391 450 9,700 -1,740 Descending Chicago Center
09:24AM 41.3175 -88.4208 34° Northeast 332 382 8,600 -1,260 Descending Chicago Center
09:25AM 41.3747 -88.3319 49° Northeast 317 365 7,100 -1,380 Descending Chicago Center
09:26AM 41.4308 -88.2469 49° Northeast 307 353 5,800 -1,080 Descending Chicago Center
09:27AM 41.4964 -88.1467 49° Northeast 296 341 5,000 -420 Descending Chicago Center
09:28AM 41.5511 -88.0636 49° Northeast 292 336 5,000  Level Chicago Center
09:29AM 41.6050 -87.9811 49° Northeast 294 338 5,000 -540 Level Chicago Center
09:30AM 41.6583 -87.9117 44° Northeast 276 318 4,000 -1,140 Descending Chicago Center
09:31AM 41.7089 -87.8489 43° Northeast 263 303 2,700 -1,440 Descending Chicago Center
09:31AM 41.7167 -87.8333 56° Northeast 206 237 2,200 -1,080 Descending Chicago TRACON
09:32AM 41.7500 -87.7833 48° Northeast 143 165 1,400 -840 Descending Chicago TRACON
09:35AM 41.7833 -87.7500 42° Northeast  Level FlightAware Approximate